Tracking 22879 objects as of 20-Apr-2021
HD Live streaming from Space Station
objects crossing your sky now

SL-8 R/B

Track SL-8 R/B now!
10-day predictions


NORAD ID: 21131
Int'l Code: 1991-013B
Perigee: 923.3 km
Apogee: 1,016.8 km
Inclination: 82.8 °
Period: 104.3 minutes
Semi major axis: 7341 km
RCS: 7.7831 m2 (large)
Launch date: February 26, 1991
Source: Commonwealth of Independent States (former USSR) (CIS)
Launch site: PLESETSK MISSILE AND SPACE COMPLEX (PKMTR)

Note: This is a ROCKET BODY
aabbcc
Your satellite tracking list
Your tracking list is empty




NASA's NSSDC Master Catalog

Two Line Element Set (TLE):
1 21131U 91013B   21109.89214885  .00000036  00000-0  20017-4 0  9993
2 21131  82.8292 179.6763 0063648 351.9793   8.0342 13.80272003518146
Source of the keplerian elements: AFSPC